User: anonymous   Login
Location: Unspecified
(0.0000°N, 0.0000°E)
Time: 02:59:20
(UTC+00:00)
Language:

Gonets-D1 - Orbit

View from above orbital plane
View from above orbital plane
View from above satellite
View from above satellite

Ground track
Ground track

The orbit data is extracted from the following two-line orbital elements,

1 23789U 96009C   17232.86545373  .00000058  00000-0  26234-3 0  9992
2 23789  82.5760 217.0272 0005048 150.9946 209.1427 12.62595070991046
Epoch (UTC): 20 August 2017 20:46:15
Eccentricity: 0.0005048
inclination: 82.5760°
perigee height: 1408 km
apogee height: 1416 km
right ascension of ascending node: 217.0272°
argument of perigee: 150.9946°
revolutions per day: 12.62595070
mean anomaly at epoch: 209.1427°
orbit number at epoch: 99104

The dashed part of the orbit path shows where the satellite is in the earth's shadow,  

DLR